Regional Weather Roundup
Issued by NWS

Home | Current Version | Previous Version | Graphics & Text | Print | Product List | Glossary On
Versions: 1 2 3 4 5 6 7 8 9 10 11 12 13 14 15 16 17 18 19 20 21 22 23 24 25 26 27 28 29 30 31 32 33 34 35 36 37 38 39 40 41 42 43 44 45 46 47 48 49 50
985
ASUS43 KFSD 291210
RWRSD

WEATHER ROUNDUP FOR SOUTH DAKOTA
NATIONAL WEATHER SERVICE SIOUX FALLS SD
700 AM CDT MON MAY 29 2017

NOTE: "FAIR" INDICATES FEW OR NO CLOUDS BELOW 12,000 FEET WITH NO
SIGNIFICANT WEATHER AND/OR OBSTRUCTIONS TO VISIBILITY.


SDZ001>005-009-010-012>017-291300-
NORTHWEST AND NORTH CENTRAL SOUTH DAKOTA

CITY           SKY/WX    TMP DP  RH WIND       PRES   REMARKS
BUFFALO          N/A     43  35  73 NW10      30.09R
FAITH            N/A     42  37  82 NW10      30.11R
MOBRIDGE       CLEAR     48  39  71 NW12      30.01R
$$

SDZ012>016-024>037-041>051-057-063-072>074-291300-
SOUTHWEST AND SOUTH CENTRAL SOUTH DAKOTA

CITY           SKY/WX    TMP DP  RH WIND       PRES   REMARKS
RAPID CTY ARPT CLEAR     43  35  73 NW9       30.14S
PIERRE         CLEAR     50  40  68 NW13      30.04R
CUSTER         CLEAR     45  24  43 W8        30.18R
ELLSWORTH AFB  CLEAR     46  36  68 NW9       30.14R
PHILIP         PTCLDY    44  37  76 NW12      30.11R
PINE RIDGE     CLEAR     40  40 100 CALM      30.15R
SPEARFISH      FAIR      43  34  70 W7        30.18R
WINNER         FAIR      48  41  76 W8        30.05R
$$

SDZ004>011-016>023-039-040-291300-
NORTHEAST SOUTH DAKOTA

CITY           SKY/WX    TMP DP  RH WIND       PRES   REMARKS
ABERDEEN       MOSUNNY   47  40  76 NW14      29.94R
WATERTOWN      SUNNY     49  44  83 NW16G23   29.90R
BROOKINGS      SUNNY     48  44  86 NW10      29.91S
SISSETON         N/A     54  47  77 NW20      29.86R
$$

SDZ017-020-022-023-036>040-048>070-291300-
SOUTHEAST SOUTH DAKOTA

CITY           SKY/WX    TMP DP  RH WIND       PRES   REMARKS
SIOUX FALLS    SUNNY     52  45  77 NW14      29.94R
HURON          CLEAR     48  42  80 NW13      29.96R
CHAMBERLAIN    CLEAR     49  42  75 W7        30.03R
MITCHELL       CLEAR     50  42  74 W14       29.98R
YANKTON        CLEAR     52  46  80 NW10      29.98R
$$

ABBREVIATIONS USED IN REMARKS
   TC - TEMPERATURE IN CELSIUS
  WCI - WIND CHILL INDEX
   HX - HEAT INDEX
  VSB - VISIBILITY





USA.gov is the U.S. government's official web portal to all federal, state and local government web resources and services.